Погода в Вачкове

Россия / Смоленская область     54°50′49″N   32°33′07″E
темп.,
°C
ветер,
м/с
пор.,
м/с
влажн.,
%
обл.,
%
осадки,
мм/ч
давл.,
гПа
погр.,
м
9 марта, вт
вт900:00−12ссз369426 0.0 1014147
03:00−14ссз349526 0.0 101681
06:00−15сз339541 0.0 101776
09:00−13ссз369230 0.0 1019243
12:00−9ссз468052 0.0 1020811
15:00−8ссз457776 0.1 10211018
18:00−9ссз2486100 0.1 1021182
21:00−13сз228984 0.1 102420
10 марта, ср
ср1000:00−14зсз119025 0.0 102420
03:00−13юз129062 0.0 102524
06:00−11ю2495100 0.4 1024180
09:00−9ю2494100 2.4 1025262
12:00−6в2392100 1.6 1025279
15:00−8всв5792100 2.2 1026414
18:00−10в4793100 0.4 1026486
21:00−12в4893100 0.6 1029378
11 марта, чт
чт1100:00−15вюв498399 0.1 1030337
03:00−18вюв379285 0.1 1032162
06:00−19вюв369071 0.0 1032147
09:00−18юв368552 0.0 1032239
12:00−12юв35862 0.0 1031349
15:00−9ююв468533 0.0 1031497
18:00−10ююв379194 0.0 1029275
21:00−13ююв499479 0.0 1030212
12 марта, пт
пт1200:00−14ююв499688 0.0 1029232
03:00−14ююв4119591 0.1 1028268
06:00−14ююв51294100 0.0 1027309
09:00−11ююв6148799 0.0 1025444
12:00−5ю81578100 0.0 1022857
15:00−4ю91576100 0.0 10201088
18:00−5ю91686100 0.1 10191044
21:00−6ю91791100 1.0 10171014
13 марта, сб
сб1300:00−6ю91693100 1.4 1015999
03:00−4ю81693100 3.2 1014755
06:00−2ююз71296100 1.2 1014443
09:000юз5109399 1.9 1015559
12:00+1ююз51099100 0.0 1015540
15:00+1ююз51198100 0.0 1015597
18:00+1ю61295100 0.0 1014623
21:00+1ю61394100 0.0 1014630